C/2017 U4 ( PanSTARRS )

Japanese version
Home page
Updated on November 23, 2017

---------------------------------------------------------------------

* Profile

Discovery Date October 27, 2017
Magnitude 21.7 mag
Discoverer Pan-STARRS 1 telescope (Haleakala)

* Orbital Elements

T 2018 Sept. 3.18195 TT                                 MPCW
q   7.7730908            (2000.0)            P               Q
                   Peri.  157.53039     +0.05370675     +0.93960160
                   Node   245.87436     +0.85059693     +0.13427656
e   1.0            Incl.  158.26078     +0.52306830     -0.31483112
From 43 observations 2017 Oct. 27-Nov. 17.

* Magnitudes Graph

        m1 = 7.5 + 5 log d + 10.0 log r

---------------------------------------------------------------------

The orbital elements are published on M.P.E.C. 2017-W52.
The magnitudes graphs are made with Comet for Windows.

---------------------------------------------------------------------

Copyright(C) Seiichi Yoshida (comet@aerith.net). All rights reserved.